Precipitable_Water
1.74 1.66 1.59 1.44 1.15 1.05 0.92 0.75 0.70 0.74 0.81 0.92 0.91 0.87 0.86 0.88 0.87 0.88 0.89 0.89 0.88 0.86 0.84 0.82 0.81 0.80 0.79 0.78 0.75 0.72 0.73 0.68
1.64 1.58 1.38 1.16 1.13 1.01 0.85 0.70 0.74 0.90 0.94 0.96 0.94 0.92 0.91 0.91 0.94 0.96 0.98 0.96 0.95 0.92 0.88 0.83 0.79 0.77 0.78 0.77 0.75 0.82 0.81 0.79
1.39 1.17 1.15 1.16 1.07 0.95 0.78 0.71 0.88 0.97 1.00 1.00 1.01 1.06 1.05 1.05 0.99 0.97 0.97 0.96 0.96 0.94 0.90 0.84 0.80 0.81 0.79 0.77 0.79 0.76 0.76 0.76
1.12 1.13 1.10 1.01 0.90 0.83 0.76 0.82 1.03 1.14 1.17 1.16 1.15 1.15 1.13 1.07 0.99 0.95 0.93 0.93 0.95 0.94 0.90 0.86 0.84 0.82 0.78 0.76 0.76 0.75 0.72 0.72
1.03 1.00 0.94 0.83 0.81 0.79 0.84 0.95 1.13 1.18 1.21 1.22 1.22 1.22 1.20 1.16 1.04 0.96 0.97 0.95 1.00 0.99 0.96 0.92 0.89 0.84 0.78 0.75 0.73 0.68 0.67 0.66
0.91 0.88 0.80 0.78 0.76 0.80 0.90 1.11 1.18 1.23 1.25 1.25 1.22 1.22 1.20 1.15 1.01 1.00 1.01 1.00 0.98 0.97 0.93 0.90 0.88 0.84 0.77 0.70 0.67 0.64 0.61 0.58
0.89 0.86 0.79 0.79 0.86 0.97 1.07 1.15 1.26 1.30 1.33 1.38 1.34 1.23 1.15 1.12 1.09 1.07 1.06 1.06 0.99 0.95 0.92 0.89 0.81 0.76 0.75 0.68 0.63 0.61 0.59 0.54
0.99 1.00 1.00 1.04 1.07 1.15 1.21 1.23 1.18 1.19 1.23 1.30 1.42 1.28 1.26 1.20 1.12 1.08 1.08 1.06 1.03 0.99 0.91 0.81 0.75 0.74 0.71 0.68 0.64 0.62 0.59 0.55
1.15 1.16 1.18 1.25 1.32 1.30 1.24 1.20 1.14 1.15 1.21 1.27 1.37 1.29 1.27 1.20 1.14 1.09 1.07 1.00 0.95 0.88 0.83 0.77 0.71 0.68 0.64 0.63 0.61 0.59 0.57 0.55
1.27 1.33 1.34 1.38 1.42 1.40 1.28 1.26 1.23 1.28 1.25 1.25 1.25 1.20 1.19 1.15 1.07 0.97 0.92 0.83 0.78 0.75 0.72 0.66 0.63 0.62 0.59 0.57 0.55 0.55 0.51 0.50
1.26 1.34 1.35 1.37 1.39 1.36 1.26 1.25 1.27 1.21 1.20 1.16 1.13 1.10 1.06 0.93 0.86 0.82 0.76 0.72 0.69 0.67 0.65 0.64 0.58 0.56 0.52 0.46 0.44 0.44 0.39 0.34
1.27 1.33 1.35 1.46 1.26 1.24 1.18 1.13 1.10 1.10 1.08 1.00 0.94 0.87 0.84 0.77 0.75 0.72 0.70 0.68 0.67 0.67 0.63 0.61 0.56 0.52 0.46 0.34 0.36 0.35 0.36 0.39
1.25 1.30 1.38 1.32 1.18 1.08 1.02 0.98 0.98 0.90 0.86 0.81 0.79 0.78 0.75 0.73 0.70 0.72 0.71 0.66 0.65 0.63 0.56 0.47 0.43 0.44 0.38 0.32 0.31 0.32 0.43 0.46
1.26 1.29 1.26 1.16 1.07 0.98 0.94 0.90 0.85 0.78 0.77 0.78 0.78 0.75 0.75 0.73 0.72 0.68 0.65 0.57 0.55 0.51 0.44 0.37 0.37 0.40 0.35 0.29 0.23 0.26 0.29 0.44
1.11 1.12 1.11 0.97 0.93 0.92 0.86 0.84 0.78 0.75 0.77 0.76 0.76 0.76 0.73 0.70 0.66 0.59 0.49 0.43 0.38 0.42 0.41 0.38 0.33 0.31 0.33 0.28 0.25 0.22 0.26 0.30
1.01 0.94 0.87 0.86 0.83 0.79 0.78 0.76 0.75 0.76 0.75 0.76 0.72 0.70 0.64 0.57 0.50 0.47 0.45 0.42 0.41 0.41 0.38 0.39 0.36 0.29 0.30 0.32 0.32 0.31 0.26 0.24
0.84 0.79 0.77 0.79 0.82 0.84 0.80 0.78 0.77 0.73 0.70 0.63 0.61 0.57 0.55 0.53 0.49 0.47 0.46 0.47 0.44 0.40 0.39 0.39 0.38 0.35 0.31 0.29 0.30 0.29 0.30 0.27
0.76 0.74 0.75 0.79 0.81 0.81 0.78 0.69 0.62 0.58 0.59 0.56 0.50 0.52 0.54 0.54 0.55 0.50 0.47 0.42 0.41 0.42 0.44 0.43 0.41 0.35 0.31 0.31 0.29 0.27 0.27 0.26
0.75 0.74 0.76 0.79 0.76 0.70 0.64 0.64 0.65 0.58 0.54 0.50 0.50 0.44 0.41 0.39 0.39 0.37 0.40 0.43 0.43 0.46 0.43 0.41 0.39 0.34 0.33 0.32 0.34 0.31 0.30 0.29
0.75 0.76 0.72 0.70 0.65 0.67 0.72 0.73 0.62 0.56 0.48 0.43 0.40 0.37 0.34 0.33 0.33 0.36 0.41 0.45 0.45 0.44 0.43 0.41 0.41 0.39 0.36 0.34 0.32 0.31 0.30 0.28
Wind_Speed
12 12 11 9 8 8 7 8 8 7 6 4 3 1 1 3 5 6 7 8 10 10 11 12 14 15 16 17 17 17 16 15
11 11 10 9 9 8 9 8 8 7 6 5 3 3 4 5 6 8 9 9 11 11 13 14 15 16 18 19 19 18 19 18
11 10 10 9 9 9 9 8 8 8 6 6 5 6 7 9 9 10 11 11 13 14 14 16 17 18 20 22 21 21 20 19
10 9 9 9 9 9 9 9 8 8 8 8 9 9 10 11 12 13 13 14 15 15 17 19 20 21 22 23 23 23 21 21
9 9 9 9 9 9 8 8 9 9 10 11 12 12 13 13 14 15 15 17 17 18 20 21 23 24 24 25 24 24 23 23
9 9 8 8 8 8 8 8 9 10 11 13 14 14 14 14 15 16 17 19 20 21 22 24 25 26 27 27 27 26 26 26
9 8 8 8 8 8 8 9 10 11 12 13 15 16 16 16 16 17 19 20 22 24 26 27 29 29 29 30 29 29 28 28
7 7 7 8 8 8 8 9 11 13 13 13 15 14 15 16 18 20 22 24 27 29 30 31 31 31 32 32 32 32 32 32
7 7 8 8 9 9 9 11 9 13 18 24 20 18 18 18 20 23 26 28 31 30 32 32 33 33 33 34 34 34 35 36
8 8 9 10 11 12 14 17 21 18 16 16 14 16 18 21 25 27 29 29 30 31 32 33 34 35 35 36 37 38 39 40
10 11 12 14 14 15 18 19 17 16 16 15 16 18 20 24 26 28 29 30 31 32 34 35 37 38 38 40 40 40 41 41
12 13 14 14 17 17 16 15 14 14 16 17 19 20 23 25 27 29 30 32 33 35 36 38 39 40 41 42 41 42 43 41
13 13 14 15 16 14 14 15 15 16 17 19 21 23 25 27 29 30 32 35 36 37 38 40 40 41 42 43 44 43 42 43
13 13 14 13 13 13 15 15 16 18 20 21 23 25 27 29 31 33 36 36 38 38 40 41 41 42 43 45 44 45 45 44
10 10 11 12 13 14 14 15 17 19 21 24 25 27 30 32 34 36 38 38 39 40 41 42 42 43 44 46 47 47 50 52
8 9 9 9 10 12 14 16 18 21 23 26 28 30 33 35 37 38 39 40 40 41 41 42 44 45 46 46 49 51 52 54
5 6 7 9 11 13 15 17 20 24 26 29 31 33 35 37 39 40 41 41 41 42 43 45 45 47 48 49 50 50 50 51
6 7 8 10 12 15 17 21 23 26 28 30 32 35 37 38 40 41 42 42 42 43 46 46 48 48 48 48 48 48 48 47
8 9 11 13 15 18 20 24 24 28 31 33 35 37 38 39 41 42 43 43 43 46 46 48 48 48 48 48 46 44 43 42
11 12 13 15 18 21 24 26 28 30 32 35 37 37 38 40 42 43 44 44 45 47 47 48 48 47 46 44 42 39 37 35
Wind_Direction
192 198 200 200 198 197 192 188 184 185 182 185 192 213 308 331 333 336 336 337 339 341 343 341 340 341 339 337 333 331 326 322
192 195 198 201 202 197 191 192 192 193 196 204 230 264 288 303 312 317 319 322 328 330 332 334 334 335 335 332 327 321 320 315
188 191 196 200 197 196 197 199 203 203 213 230 253 276 285 291 297 299 311 317 317 320 322 324 325 326 328 329 325 321 316 311
186 189 192 193 196 197 203 208 213 223 238 250 266 276 282 288 291 290 297 308 310 312 315 315 317 317 318 321 320 318 314 311
185 189 192 196 201 205 211 217 227 240 253 262 269 275 282 287 292 291 292 300 303 305 308 309 310 311 313 314 314 312 308 306
185 191 195 201 207 213 218 230 243 253 260 270 274 277 280 285 290 292 293 296 299 303 305 304 306 306 308 308 308 305 303 300
179 188 196 206 213 221 230 243 256 265 269 277 279 278 279 283 286 292 293 296 301 302 304 304 305 303 302 304 303 301 300 298
193 203 209 216 221 227 239 256 270 273 269 288 280 282 280 280 288 295 294 297 298 299 302 302 302 301 300 300 300 299 297 295
211 219 225 229 231 238 246 264 297 296 278 276 279 281 282 286 292 294 299 297 298 299 301 301 301 300 300 300 298 297 296 294
232 238 242 246 247 248 265 276 283 290 288 292 281 287 289 291 296 300 300 300 301 300 300 300 301 300 300 300 297 295 295 293
245 250 257 257 264 281 286 288 291 291 292 293 295 294 297 299 301 302 303 302 302 301 301 301 301 300 300 299 298 295 295 293
254 261 265 261 283 289 291 292 296 297 297 299 300 300 302 303 303 304 303 303 303 302 301 300 301 300 300 300 298 297 295 292
260 265 264 275 282 283 290 294 298 300 301 303 303 304 304 305 305 305 305 304 303 302 302 302 302 301 302 300 300 298 296 292
260 264 270 274 281 288 294 297 299 300 303 305 305 306 306 307 307 307 307 306 305 304 304 303 302 302 301 301 300 297 297 293
265 263 270 277 284 291 297 302 304 305 307 307 307 307 307 307 307 307 307 307 306 305 304 304 303 302 301 301 301 298 297 295
268 272 275 283 289 296 300 306 307 309 309 308 308 307 307 307 308 308 308 307 306 305 305 305 304 304 303 301 300 299 298 296
265 271 283 289 296 301 305 309 311 310 310 308 308 308 308 308 308 308 308 307 306 306 306 306 305 305 304 303 301 300 298 297
273 283 291 296 302 305 307 310 311 313 313 310 309 309 309 309 309 309 308 307 307 307 307 306 306 305 304 303 302 302 300 299
278 286 293 299 303 307 308 310 310 313 314 313 312 311 311 310 311 310 309 308 308 308 308 307 305 304 304 304 303 302 302 300
279 285 293 299 304 305 307 309 309 312 314 315 313 312 312 313 313 313 311 308 308 309 308 308 306 304 303 303 302 302 303 302